Location: Newark
(43.0000°N, 1.6781°W)
Time: 11:06:45
(UTC+00:00)

Vanguard 2 - Visible Passes

Search period start: 27 September 2022 00:00
Search period end: 07 October 2022 00:00
Orbit: 551 x 2935 km, 32.9° (Epoch: 27 September)

Date Brightness Start Highest point End Pass type
(mag) Time Alt. Az. Time Alt. Az. Time Alt. Az.
27 Sep 10.8 19:51:47 10° W 20:07:22 40° SSW 20:16:38 20° SSE visible
27 Sep 11.3 22:08:35 10° WSW 22:15:58 15° SW 22:18:00 14° SW visible
28 Sep 10.9 17:56:50 10° W 18:13:31 55° SSW 18:28:57 10° ESE visible
28 Sep 10.9 20:09:30 10° W 20:24:07 34° SW 20:32:58 19° SSE visible
29 Sep 10.9 18:14:10 10° W 18:30:36 50° SSW 18:45:44 10° SE visible
29 Sep 11.1 20:27:30 10° W 20:40:45 27° SW 20:49:23 16° S visible
30 Sep 11.0 18:31:36 10° W 18:47:36 45° SSW 19:02:20 10° SE visible
30 Sep 11.3 20:45:57 10° W 20:57:19 21° SW 21:05:53 13° S visible
01 Oct 11.2 18:49:08 10° W 19:04:29 39° SSW 19:18:43 10° SSE visible
01 Oct 11.5 21:05:19 10° WSW 21:13:48 16° SW 21:21:28 10° SSW visible
02 Oct 11.4 19:06:52 10° W 19:21:19 33° SW 19:34:47 10° SSE visible
02 Oct 11.7 21:28:26 10° WSW 21:30:14 10° SW 21:32:00 10° SW visible
03 Oct 11.5 19:24:53 10° W 19:38:02 27° SW 19:50:26 10° S visible
04 Oct 11.6 19:43:25 10° W 19:54:41 21° SW 20:05:27 10° S visible
05 Oct 11.5 17:47:20 10° W 18:01:29 37° SSW 18:16:34 10° SSE visible
05 Oct 11.8 20:02:59 10° WSW 20:11:18 15° SW 20:19:22 10° SSW visible
06 Oct 11.6 18:05:06 10° W 18:18:23 31° SSW 18:32:28 10° SSE visible
